Regional Weather Roundup
Issued by NWS

Home | Current Version | Previous Version | Text Only | Print | Product List | Glossary On
Versions: 1 2 3 4 5 6 7 8 9 10 11 12 13 14 15 16 17 18 19 20 21 22 23 24 25 26 27 28 29 30 31 32 33 34 35 36 37 38 39 40 41 42 43 44 45 46 47 48 49 50
000
ASUS43 KLOT 250212
RWRIL

ILLINOIS REGIONAL WEATHER ROUNDUP
NATIONAL WEATHER SERVICE CHICAGO/ROMEOVILLE IL
900 PM CDT FRI APR 24 2015

NOTE: "FAIR" INDICATES FEW OR NO CLOUDS BELOW 12,000 FEET WITH NO
SIGNIFICANT WEATHER AND/OR OBSTRUCTIONS TO VISIBILITY.

* THESE STATIONS ARE NOT UNDER NWS QUALITY CONTROL. THEY ALSO MAY NOT
  REPORT WEATHER SUCH AS PRECIPITATION OR FOG.

ILZ001-002-007-009-015-016-024-250300-
NORTHWEST ILLINOIS

CITY           SKY/WX    TMP DP  RH WIND       PRES   REMARKS
MOLINE         CLOUDY    50  41  71 E17       29.79F
STERLING*      CLOUDY    45  37  76 SE16G33   29.84R
SAVANNA*       LGT RAIN  44  40  87 E12       29.85F
$$

ILZ003-004-008-010-011-017-018-250300-
NORTH CENTRAL ILLINOIS

CITY           SKY/WX    TMP DP  RH WIND       PRES   REMARKS
ROCKFORD       CLOUDY    42  36  79 E12       29.91S
FREEPORT*      CLOUDY    41  38  87 E10       29.89F
ROCHELLE*      RAIN      41  38  89 E13G35    29.86F
DE KALB*       RAIN      39  36  87 E14G20    29.90F WCI  31
PERU*          LGT RAIN  51  40  68 E8        29.87F
$$

ILZ005-006-012>014-019>023-250300-
NORTHEAST ILLINOIS

CITY           SKY/WX    TMP DP  RH WIND       PRES   REMARKS
CHICAGO-OHARE  LGT RAIN  42  35  76 E7        29.94R
CHICAGO-MIDWAY LGT RAIN  47  32  56 NE17      29.95R
AURORA         RAIN      44  35  70 E12       29.92R
LANSING*       CLOUDY    46  25  43 NE10G17   29.93R
JOLIET*        RAIN      49  32  53 NE13      29.91S
WAUKEGAN       CLOUDY    39  36  89 NE12      29.93R WCI  32
DUPAGE AIRPORT RAIN      41  37  86 E6        29.92R FOG
KANKAKEE*      CLOUDY    54  35  47 E3        29.89S
WHEELING       LGT RAIN  41  34  76 VRB5      29.95R
MORRIS*        LGT RAIN  48  33  57 NE5       29.90R
ROMEOVILLE*    LGT RAIN  45  32  59 E13       29.92R
NORTHERLY ISL    N/A     43  33  68 NE14        N/A
$$

LMZ740>746-250300-
SOUTHERN LAKE MICHIGAN

STATION/POSITION SKY/WX   TEMP    WIND        PRES    VSBY  WAVE
                          AIR SEA DIR/SP/G                  HT/PER
                          (F)     (DEG/KT/KT) (MB)    (MI)  (FT/S)
HARRISON CRIB              42      40/ 19/ 22   N/A
BURNHAM HARBOR             43      40/ 10/ 15   N/A
CALUMET HARBOR             44      50/ 10/ 12   N/A
BURNS HARBOR               47      60/ 18/ 22 1013.9S
MICHIGAN CITY              47      30/ 19/ 22   N/A
MICHIGAN CITY 6N           44 44   60/ 16/ 19   N/A           3/ 4
$$

ILZ025>027-034>036-040-047-049-050-058-095>099-250300-
WEST-CENTRAL ILLINOIS

CITY           SKY/WX    TMP DP  RH WIND       PRES   REMARKS
QUINCY         CLOUDY    60  41  49 S10       29.72F
GALESBURG*     CLOUDY    53  40  61 E9        29.77F
MACOMB*        CLOUDY    58  35  42 SE9       29.78R
JACKSONVILLE*  CLOUDY    59  40  49 SE9       29.78S
PITTSFIELD*    CLOUDY    59  44  56 SE12      29.76S
$$

ILZ028>032-037-038-041>044-048-051>054-059>061-250300-
CENTRAL ILLINOIS

CITY           SKY/WX    TMP DP  RH WIND       PRES   REMARKS
PONTIAC        CLOUDY    55  35  47 E14       29.86F
BLOOMINGTON    CLOUDY    57  32  39 SE10      29.84R
DECATUR        CLOUDY    57  33  40 SE14      29.82S
PEORIA         CLOUDY    59  32  36 E10       29.81S
LACON*         CLOUDY    51  40  65 E10       29.83S
LINCOLN*       CLOUDY    58  33  38 SE9       29.79S
SPRINGFIELD    CLOUDY    59  37  44 S14       29.80R
TAYLORVILLE    CLOUDY    55  36  47 S13G18    29.80S
$$

ILZ033-039-045-046-055>057-062-063-250300-
EAST-CENTRAL ILLINOIS

CITY           SKY/WX    TMP DP  RH WIND       PRES   REMARKS
CHAMPAIGN      CLOUDY    56  34  43 SE12      29.84S
DANVILLE*      CLOUDY    54  40  59 E3        29.83F
RANTOUL*       CLOUDY    57  35  43 SE10      29.84F
MATTOON        CLOUDY    56  34  43 SE10      29.83F
PARIS*         CLOUDY    55  39  55 SE5       29.86F
$$

ILZ079-100>102-250300-
SOUTHWEST ILLINOIS

CITY           SKY/WX    TMP DP  RH WIND       PRES   REMARKS
ALTON          CLOUDY    55  41  58 MISG      29.80
BELLEVILLE     CLOUDY    55  47  73 VRB6      29.79S
CAHOKIA*       CLOUDY    56  45  66 S8        29.80R
SPARTA*        CLOUDY    55  45  69 SE8       29.81F
$$

ILZ064>066-069>071-074>076-080>082-084>086-088>090-092>094-250300-
SOUTH-CENTRAL ILLINOIS

CITY           SKY/WX    TMP DP  RH WIND       PRES   REMARKS
CARBONDALE     CLOUDY    55  43  63 SE8       29.81F
CAIRO*         CLOUDY    59  46  63 SE7       29.85R
EFFINGHAM*     CLOUDY    58  31  36 SE8       29.85S
MARION         CLOUDY    57  45  62 SE5       29.83F
MT. VERNON     CLOUDY    57  39  51 SE6       29.85R
CENTRALIA*     CLOUDY    56  40  56 SE9       29.83R
SALEM*         CLOUDY    60  36  41 SE6       29.83S
METROPOLIS*    CLOUDY    59  43  55 S5        29.83S
$$

ILZ067-068-072-073-078-083-087-091-250300-
SOUTHEAST ILLINOIS

CITY           SKY/WX    TMP DP  RH WIND       PRES   REMARKS
LAWRENCEVILLE  CLOUDY    59  37  44 SE7       29.86F
FLORA*         CLOUDY    57  38  48 S8        29.85S
FAIRFIELD*     CLOUDY    57  40  52 S7        29.84S
HARRISBURG*    CLOUDY    56  44  65 SE5       29.86R
ROBINSON*      CLOUDY    59  33  38 S6        29.87F
CARMI*         CLOUDY    56  38  51 E7        29.85F
$$

ABBREVIATIONS USED IN REMARKS
   TC - TEMPERATURE IN CELSIUS
  WCI - WIND CHILL INDEX
   HX - HEAT INDEX
  VSB - VISIBILITY
$$



USA.gov is the U.S. government's official web portal to all federal, state and local government web resources and services.